When you browse on this site, cookies collect data to enhance your experience and personalize the content and advertising you see.
Visit our Privacy Policy to learn more. By continuing to use the site, you agree to this use of cookies and data.

Meteo pe oră la Dziedzice

Astăzi, 21 Septembrie, Luni

Timp Temperatura Precipitaţii Vânt Presiune Umiditate
00:00 +10°C° 0 mm 2 m/s 754 mmHg 68%
01:00 +10°C° 0 mm 2 m/s 754 mmHg 69%
02:00 +9°C° 0 mm 2 m/s 754 mmHg 71%
03:00 +9°C° 0 mm 2 m/s 754 mmHg 74%
04:00 +9°C° 0 mm 2 m/s 754 mmHg 77%
05:00 +10°C° 0 mm 2 m/s 754 mmHg 75%
06:00 +10°C° 0 mm 2 m/s 754 mmHg 74%
07:00 +12°C° 0 mm 2 m/s 754 mmHg 73%
08:00 +14°C° 0 mm 2 m/s 754 mmHg 67%
09:00 +17°C° 0 mm 2 m/s 754 mmHg 60%
10:00 +19°C° 0 mm 2 m/s 754 mmHg 53%
11:00 +20°C° 0 mm 2 m/s 753 mmHg 50%
12:00 +21°C° 0 mm 2 m/s 753 mmHg 46%
13:00 +24°C° 0 mm 2 m/s 753 mmHg 43%
14:00 +23°C° 0 mm 2 m/s 753 mmHg 44%
15:00 +23°C° 0 mm 2 m/s 752 mmHg 45%
16:00 +23°C° 0 mm 1 m/s 752 mmHg 47%
17:00 +21°C° 0 mm 1 m/s 752 mmHg 51%
18:00 +20°C° 0 mm 1 m/s 752 mmHg 56%
19:00 +18°C° 0 mm 1 m/s 752 mmHg 60%
20:00 +16°C° 0 mm 1 m/s 752 mmHg 62%
21:00 +16°C° 0 mm 1 m/s 752 mmHg 63%
22:00 +15°C° 0 mm 1 m/s 752 mmHg 64%
23:00 +15°C° 0 mm 1 m/s 752 mmHg 65%

Mâine, 22 Septembrie, Marţi

Timp Temperatura Precipitaţii Vânt Presiune Umiditate
00:00 +14°C° 0 mm 2 m/s 751 mmHg 66%
01:00 +14°C° 0 mm 2 m/s 751 mmHg 67%
02:00 +14°C° 0 mm 2 m/s 751 mmHg 68%
03:00 +14°C° 0 mm 2 m/s 751 mmHg 68%
04:00 +14°C° 0 mm 2 m/s 751 mmHg 68%
05:00 +14°C° 0 mm 2 m/s 751 mmHg 67%
06:00 +15°C° 0 mm 2 m/s 751 mmHg 67%
07:00 +16°C° 0 mm 2 m/s 751 mmHg 66%
08:00 +18°C° 0 mm 2 m/s 751 mmHg 59%
09:00 +21°C° 0 mm 3 m/s 751 mmHg 53%
10:00 +24°C° 0 mm 3 m/s 751 mmHg 46%
11:00 +25°C° 0 mm 3 m/s 750 mmHg 43%
12:00 +26°C° 0 mm 4 m/s 750 mmHg 39%
13:00 +27°C° 0 mm 4 m/s 749 mmHg 36%
14:00 +27°C° 0 mm 4 m/s 749 mmHg 38%
15:00 +27°C° 0 mm 3 m/s 748 mmHg 41%
16:00 +26°C° 0 mm 3 m/s 748 mmHg 43%
17:00 +24°C° 0 mm 3 m/s 748 mmHg 48%
18:00 +21°C° 0 mm 3 m/s 748 mmHg 52%
19:00 +20°C° 0 mm 3 m/s 747 mmHg 57%
20:00 +19°C° 0 mm 3 m/s 747 mmHg 58%
21:00 +18°C° 0 mm 3 m/s 747 mmHg 59%
22:00 +18°C° 0 mm 3 m/s 747 mmHg 60%
23:00 +17°C° 0 mm 3 m/s 747 mmHg 60%

Poimâine, 23 Septembrie, Miercuri

Timp Temperatura Precipitaţii Vânt Presiune Umiditate
00:00 +17°C° 0 mm 3 m/s 747 mmHg 60%
01:00 +16°C° 0 mm 3 m/s 746 mmHg 60%
02:00 +16°C° 0 mm 3 m/s 746 mmHg 60%
03:00 +16°C° 0 mm 3 m/s 746 mmHg 61%
04:00 +16°C° 0 mm 3 m/s 745 mmHg 61%
05:00 +16°C° 0 mm 3 m/s 745 mmHg 61%
06:00 +17°C° 0 mm 3 m/s 745 mmHg 61%
07:00 +17°C° 0 mm 3 m/s 745 mmHg 61%
08:00 +19°C° 0 mm 3 m/s 745 mmHg 56%
09:00 +22°C° 0 mm 3 m/s 745 mmHg 51%
10:00 +25°C° 0 mm 4 m/s 745 mmHg 45%
11:00 +26°C° 0 mm 4 m/s 745 mmHg 43%
12:00 +28°C° 0 mm 4 m/s 744 mmHg 40%
13:00 +29°C° 0 mm 4 m/s 744 mmHg 37%
14:00 +29°C° 0 mm 4 m/s 744 mmHg 40%
15:00 +28°C° 0 mm 3 m/s 744 mmHg 43%
16:00 +28°C° 0 mm 2 m/s 743 mmHg 46%
17:00 +26°C° 0 mm 2 m/s 743 mmHg 51%
18:00 +24°C° 0 mm 2 m/s 743 mmHg 56%
19:00 +21°C° 0 mm 2 m/s 743 mmHg 61%
20:00 +20°C° 0 mm 2 m/s 743 mmHg 63%
21:00 +20°C° 0 mm 2 m/s 743 mmHg 65%
22:00 +20°C° 0 mm 1 m/s 743 mmHg 67%
23:00 +20°C° 0 mm 1 m/s 743 mmHg 69%

24 Septembrie, Joi

Timp Temperatura Precipitaţii Vânt Presiune Umiditate
00:00 +18°C° 0 mm 2 m/s 743 mmHg 71%
01:00 +18°C° 0 mm 2 m/s 743 mmHg 72%
02:00 +18°C° 0 mm 2 m/s 743 mmHg 76%
03:00 +17°C° 0 mm 2 m/s 743 mmHg 79%
04:00 +17°C° 0 mm 2 m/s 743 mmHg 83%
05:00 +17°C° 0 mm 2 m/s 744 mmHg 83%
06:00 +17°C° 0 mm 3 m/s 744 mmHg 83%
07:00 +18°C° 0 mm 3 m/s 744 mmHg 83%
08:00 +20°C° 0 mm 3 m/s 744 mmHg 76%
09:00 +21°C° 0 mm 3 m/s 744 mmHg 70%
10:00 +24°C° 0 mm 3 m/s 745 mmHg 63%
11:00 +25°C° 0 mm 3 m/s 745 mmHg 59%
12:00 +26°C° 0 mm 3 m/s 745 mmHg 54%
13:00 +26°C° 0 mm 3 m/s 745 mmHg 49%
14:00 +26°C° 0 mm 3 m/s 745 mmHg 51%
15:00 +26°C° 0 mm 3 m/s 745 mmHg 53%
16:00 +26°C° 0 mm 3 m/s 745 mmHg 54%
17:00 +24°C° 0 mm 2 m/s 745 mmHg 59%
18:00 +23°C° 0 mm 2 m/s 745 mmHg 63%
19:00 +20°C° 0 mm 2 m/s 745 mmHg 67%
20:00 +21°C° 0 mm 1 m/s 746 mmHg 69%
21:00 +20°C° 0 mm 1 m/s 746 mmHg 71%
22:00 +20°C° 0 mm 1 m/s 746 mmHg 73%
23:00 +19°C° 0 mm 1 m/s 746 mmHg 74%

25 Septembrie, Vineri

Timp Temperatura Precipitaţii Vânt Presiune Umiditate
00:00 +19°C° 0 mm 1 m/s 746 mmHg 75%
01:00 +18°C° 0 mm 2 m/s 745 mmHg 75%
02:00 +17°C° 0 mm 2 m/s 745 mmHg 77%
03:00 +17°C° 0 mm 2 m/s 745 mmHg 79%
04:00 +17°C° 0 mm 3 m/s 744 mmHg 81%
05:00 +17°C° 0 mm 3 m/s 744 mmHg 81%
06:00 +18°C° 0 mm 3 m/s 743 mmHg 80%
07:00 +18°C° 0 mm 4 m/s 743 mmHg 80%
08:00 +20°C° 0 mm 4 m/s 742 mmHg 72%
09:00 +22°C° 0 mm 5 m/s 742 mmHg 65%
10:00 +24°C° 0 mm 6 m/s 741 mmHg 58%
11:00 +24°C° 0 mm 6 m/s 741 mmHg 55%
12:00 +26°C° 0 mm 7 m/s 740 mmHg 52%
13:00 +27°C° 0 mm 7 m/s 740 mmHg 50%
14:00 +24°C° 0.1 mm 6 m/s 739 mmHg 55%
15:00 +23°C° 0.1 mm 6 m/s 739 mmHg 61%
16:00 +21°C° 0.1 mm 5 m/s 739 mmHg 66%
17:00 +20°C° 0.4 mm 5 m/s 739 mmHg 73%
18:00 +19°C° 0.4 mm 4 m/s 739 mmHg 81%
19:00 +18°C° 0.4 mm 3 m/s 739 mmHg 88%
20:00 +17°C° 1.2 mm 4 m/s 739 mmHg 88%
21:00 +15°C° 1.2 mm 5 m/s 739 mmHg 89%
22:00 +14°C° 1.2 mm 6 m/s 739 mmHg 90%
23:00 +14°C° 0.9 mm 6 m/s 740 mmHg 89%

26 Septembrie, Sâmbătă

Timp Temperatura Precipitaţii Vânt Presiune Umiditate
00:00 +13°C° 0.9 mm 6 m/s 740 mmHg 89%
01:00 +13°C° 0.9 mm 6 m/s 740 mmHg 88%
02:00 +13°C° 0.1 mm 5 m/s 740 mmHg 88%
03:00 +12°C° 0.1 mm 4 m/s 740 mmHg 87%
04:00 +12°C° 0.1 mm 4 m/s 740 mmHg 87%
05:00 +12°C° 0 mm 3 m/s 740 mmHg 86%
06:00 +12°C° 0 mm 3 m/s 741 mmHg 84%
07:00 +12°C° 0 mm 3 m/s 741 mmHg 83%
08:00 +13°C° 0 mm 3 m/s 741 mmHg 79%
09:00 +13°C° 0 mm 3 m/s 741 mmHg 76%
10:00 +14°C° 0 mm 3 m/s 742 mmHg 72%
11:00 +16°C° 0 mm 2 m/s 742 mmHg 70%
12:00 +16°C° 0 mm 2 m/s 742 mmHg 69%
13:00 +17°C° 0 mm 2 m/s 742 mmHg 67%
14:00 +16°C° 0.1 mm 2 m/s 742 mmHg 71%
15:00 +16°C° 0.1 mm 2 m/s 741 mmHg 75%
16:00 +16°C° 0.1 mm 2 m/s 741 mmHg 78%
17:00 +14°C° 0 mm 3 m/s 740 mmHg 80%
18:00 +14°C° 0 mm 4 m/s 740 mmHg 82%
19:00 +14°C° 0 mm 5 m/s 739 mmHg 84%
20:00 +14°C° 0.1 mm 7 m/s 738 mmHg 85%
21:00 +13°C° 0.1 mm 8 m/s 738 mmHg 87%
22:00 +15°C° 0.1 mm 9 m/s 737 mmHg 88%
23:00 +15°C° 0.1 mm 9 m/s 736 mmHg 88%
Arată mai mult